Location: Crayja
(6.2254°N, 10.6273°W)
Time: 03:20:28
(UTC+00:00)

Daily predictions for brighter satellites

Satellite Brightness Start Highest point End
(mag) Time Altitude Azimuth Time Altitude Azimuth Time Altitude Azimuth
CZ-3A R/B 4.3 04:10:00 33° NE 04:10:00 33° NE 04:24:53 10° E
ATLAS 2AS CENTAUR RB 3.7 04:13:27 54° ENE 04:13:27 54° ENE 04:31:52 10° E
CZ-3 R/B 4.2 04:15:04 40° NW 04:26:00 54° NNE 04:36:42 10° E
Atlas Centaur 2 2.9 04:45:42 82° SSW 04:46:04 85° SSE 04:54:41 10° ENE
ARIANE 5 R/B 4.1 04:47:34 40° SE 04:47:34 40° SE 04:53:15 10° E
Cosmos 1603 4.3 04:46:55 54° ESE 04:46:58 54° ESE 04:52:32 10° NNE
ARIANE 5 R/B 3.1 04:47:46 67° E 04:47:46 67° E 04:50:36 10° E
Cosmos 1943 4.1 04:48:55 10° S 04:54:14 45° ESE 04:59:33 10° NNE
Sylda 4400 4.4 05:09:08 67° E 05:09:08 67° E 05:12:46 10° E
GPS 2-14 Rocket1 3.8 05:12:13 43° E 05:12:13 43° E 05:15:04 10° ENE
Cosmos 2084 3.9 05:13:45 61° ENE 05:13:45 61° ENE 05:17:34 10° NNE
Cosmos 614 Rocket 3.8 05:09:58 10° S 05:15:02 86° ESE 05:20:09 10° NNE
Fermi 4.4 05:16:07 52° E 05:16:07 52° E 05:19:20 10° ENE
Cosmos 1842 Rocket 4.0 05:10:56 10° S 05:19:43 10° N 05:19:45 10° N
GPS 2-04 Rocket1 4.0 05:18:53 31° ENE 05:18:53 31° ENE 05:21:08 10° ESE
STARLINK-24 4.3 05:19:25 47° SSE 05:19:25 47° SSE 05:22:21 10° SSE
ARIANE 5 R/B 3.5 05:20:40 36° S 05:20:40 36° S 05:23:07 10° ESE
Meteor 1-27 4.2 05:17:12 10° S 05:22:50 81° E 05:28:23 10° N
STARLINK-81 3.7 05:26:10 62° S 05:26:10 62° S 05:29:36 10° SSE
STARLINK-54 4.0 05:28:10 50° S 05:28:10 50° S 05:31:24 10° SSE
STARLINK-77 3.7 05:29:20 61° SSW 05:29:20 61° SSW 05:32:53 10° SSE
STARLINK-25 3.7 05:30:57 60° SSW 05:30:57 60° SSW 05:34:31 10° SSE
ALOS 2.5 05:26:42 10° NNE 05:31:19 71° ESE 05:35:58 10° S
USA 267 4.0 05:25:33 10° SE 05:31:49 50° NE 05:38:04 10° NNW
STARLINK-71 4.0 05:33:01 46° SSW 05:33:01 46° SSW 05:36:20 10° SSE
STARLINK-79 3.7 05:34:08 56° SW 05:34:08 56° SW 05:37:48 10° SSE
STARLINK-78 3.7 05:35:46 52° SW 05:35:46 52° SW 05:39:27 10° SSE
STARLINK-57 3.9 05:37:34 45° SW 05:37:34 45° SW 05:41:07 10° SSE
ARIANE 5 DEB (SYLDA) 3.8 05:35:56 25° SW 05:37:52 36° S 05:41:03 10° ESE
STARLINK-49 3.8 05:38:55 48° SW 05:38:55 48° SW 05:42:41 10° SSE
PSLV R/B 3.6 05:35:27 10° N 05:39:15 83° W 05:43:10 10° SSW
STARLINK-27 3.9 05:40:33 46° SW 05:40:33 46° SW 05:44:20 10° SSE
Ariane 44LP R/B 4.3 05:39:40 32° SW 05:40:52 44° S 05:45:18 10° E
STARLINK-74 3.9 05:42:07 43° WSW 05:42:07 43° WSW 05:45:57 10° SSE
STARLINK-39 4.0 05:43:42 41° WSW 05:43:45 41° WSW 05:47:32 10° SSE
STARLINK-31 4.1 05:45:19 38° WSW 05:45:24 38° WSW 05:49:10 10° SSE
Cosmos 2221 2.5 05:42:49 10° SSW 05:46:57 52° W 05:51:04 10° N
OAO 3 Rocket 4.5 05:42:39 10° SSW 05:47:12 39° SE 05:51:47 10° ENE
STARLINK-69 4.4 05:47:16 32° SW 05:47:16 32° SW 05:50:50 10° S
Hubble Space Telescope 1.6 05:47:05 31° SW 05:47:49 33° SSW 05:51:34 10° SE
STARLINK-21 4.2 05:48:32 34° WSW 05:48:43 34° WSW 05:52:23 10° S
Cosmos 2278 Rocket 2.8 05:47:50 30° W 05:48:52 33° WSW 05:53:53 10° SSW
Cosmos 1934 Rocket 4.1 05:43:03 10° NNW 05:49:10 52° W 05:55:20 10° SSW
SWIFT 4.5 05:48:59 13° NNW 05:49:27 13° N 05:51:31 10° NNE
Cosmos 1869 3.2 05:46:47 10° S 05:50:50 86° W 05:54:50 10° N
Cosmos 1825 2.1 05:49:45 19° NNW 05:52:18 59° W 05:56:02 10° S
STARLINK-76 4.4 05:53:20 29° WSW 05:53:41 29° WSW 05:57:13 10° S
Cosmos 2151 3.6 05:53:23 32° WNW 05:53:53 33° W 05:57:43 10° SSW
ARIANE 3 DEB 1.2 05:55:03 78° N 05:55:05 78° N 05:57:16 10° E
Cosmos 1408 Rocket 3.5 05:59:36 10° NNW 06:03:57 66° W 06:08:20 10° S
Meteosat 1 Rocket2 4.4 06:02:05 19° WNW 06:07:28 50° SW 06:12:38 10° SE
Cosmos 967 Rocket 4.4 06:01:26 10° SSW 06:07:43 78° WNW 06:14:05 10° NNE
Cosmos 1605 Rocket 4.0 06:03:26 10° NNW 06:09:25 56° W 06:15:21 10° S
Cosmos 1766 Rocket 4.5 06:07:32 12° NW 06:10:44 27° W 06:14:29 10° SSW
STARLINK-1059 4.4 06:09:28 10° NNW 06:13:29 52° NE 06:17:30 10° SE
SL-8 R/B 4.4 06:09:09 10° SSW 06:13:49 55° SE 06:18:30 10° NE
MAQSAT/ARIANE V 2.3 06:12:15 14° WSW 06:14:29 27° SSW 06:16:14 10° SE
STARLINK-1023 4.4 06:14:36 17° WSW 06:15:14 18° WSW 06:17:21 10° S
STARLINK-1029 3.8 06:14:31 19° WNW 06:16:13 32° WSW 06:19:04 10° S
STARLINK-1007 4.5 06:16:08 16° WSW 06:16:52 17° WSW 06:18:56 10° SSW
OAO 2 Rocket 4.3 06:13:11 10° SW 06:18:15 49° SE 06:23:23 10° ENE
STARLINK-1057 4.1 06:14:25 10° NNW 06:18:29 61° NE 06:22:34 10° SE
ISS -3.7 06:16:10 10° SSW 06:19:30 80° SE 06:22:51 10° NE
Cosmos 1954 Rocket 4.2 06:14:51 10° SSW 06:19:55 49° WNW 06:25:02 10° N
SKYMED 2 3.8 06:15:41 10° SSE 06:20:00 77° E 06:24:20 10° N
Helios 1A Rocket 3.2 06:16:55 10° NNE 06:21:00 75° E 06:25:05 10° S
Cosmos 1153 Rocket 4.4 06:15:31 10° N 06:21:36 76° W 06:27:46 10° S
STARLINK-1035 3.7 06:17:34 10° NNW 06:21:50 85° ENE 06:26:04 10° SE
Lacrosse 4 Rocket 1.8 06:17:40 10° NW 06:21:58 48° WSW 06:26:14 10° S
STARLINK-1034 3.9 06:19:19 10° NNW 06:23:25 71° NE 06:27:32 10° SE
STARLINK-1068 3.7 06:24:17 10° NNW 06:28:24 83° NE 06:32:32 10° SE
Cosmos 1943 Rocket 3.9 06:25:01 10° N 06:30:00 35° ENE 06:35:00 10° SE
Cosmos 2297 3.8 06:25:21 10° NNW 06:30:52 59° WSW 06:36:26 10° S
STARLINK-1027 3.7 06:28:12 10° NW 06:32:23 62° WSW 06:36:36 10° SSE
Cosmos 292 Rocket 3.7 06:29:07 10° NNW 06:33:48 66° WSW 06:38:30 10° S
Atlas Centaur 2 3.8 06:28:49 10° W 06:36:18 35° NNW 06:43:47 10° NE
STARLINK-1060 3.6 06:34:14 10° NW 06:38:20 72° SW 06:42:27 10° SSE
STARLINK-1047 3.6 06:34:27 10° NW 06:38:34 68° SW 06:42:42 10° SSE
NOSS 3-1 (C) 4.4 06:30:54 10° NNW 06:39:32 69° WSW 06:48:20 10° SSE
